ASA611 KPHX-KSEA

Flight info

Callsign ASA611
Flight time 2h 26m
Altitude 36000
Route QUAKY1 GCN WINEN NEERO KOATA PDT CHINS5
Aircraft B739/M-SDE2E3FGHIRWXY/LB1

Departure

Time 2026-05-04 03:11
Airport Phoenix Sky Harbor International Airport (KPHX)

Arrival

Time 2026-05-04 05:37
Airport Seattle–Tacoma International Airport (KSEA)
Time Latitude Longitude Altitude Speed Heading
2026-05-04 02:21 33.43735 -112.00937 1133 ft 0 kts 101°
2026-05-04 03:00 33.43735 -112.00939 1092 ft 2 kts 101°
2026-05-04 03:00 33.43740 -112.00968 1133 ft 4 kts 99°
2026-05-04 03:00 33.43740 -112.00999 1133 ft 4 kts 69°
2026-05-04 03:00 33.43726 -112.01021 1134 ft 4 kts 15°
2026-05-04 03:01 33.43713 -112.01023 1133 ft 1 kts
2026-05-04 03:01 33.43711 -112.01023 1132 ft 0 kts
2026-05-04 03:04 33.43719 -112.01023 1135 ft 4 kts
2026-05-04 03:04 33.43776 -112.01023 1132 ft 11 kts
2026-05-04 03:04 33.43856 -112.01022 1132 ft 11 kts
2026-05-04 03:04 33.43900 -112.00955 1130 ft 11 kts 85°
2026-05-04 03:05 33.43901 -112.00863 1130 ft 11 kts 89°
2026-05-04 03:05 33.43901 -112.00766 1130 ft 13 kts 91°
2026-05-04 03:05 33.43899 -112.00655 1130 ft 14 kts 91°
2026-05-04 03:05 33.43901 -112.00531 1130 ft 15 kts 89°
2026-05-04 03:06 33.43903 -112.00410 1130 ft 12 kts 101°
2026-05-04 03:06 33.43826 -112.00382 1132 ft 12 kts 180°
2026-05-04 03:06 33.43740 -112.00382 1133 ft 13 kts 180°
2026-05-04 03:06 33.43642 -112.00382 1131 ft 16 kts 180°
2026-05-04 03:07 33.43523 -112.00382 1132 ft 18 kts 180°
2026-05-04 03:07 33.43403 -112.00383 1132 ft 17 kts 180°
2026-05-04 03:07 33.43286 -112.00384 1130 ft 16 kts 181°
2026-05-04 03:07 33.43217 -112.00333 1135 ft 13 kts 98°
2026-05-04 03:08 33.43214 -112.00221 1135 ft 15 kts 90°
2026-05-04 03:08 33.43214 -112.00083 1131 ft 18 kts 90°
2026-05-04 03:08 33.43214 -111.99940 1132 ft 17 kts 89°
2026-05-04 03:08 33.43214 -111.99801 1131 ft 16 kts 90°
2026-05-04 03:09 33.43214 -111.99668 1135 ft 16 kts 91°
2026-05-04 03:09 33.43214 -111.99540 1132 ft 15 kts 90°
2026-05-04 03:09 33.43214 -111.99417 1133 ft 14 kts 90°
2026-05-04 03:09 33.43183 -111.99352 1134 ft 9 kts 165°
2026-05-04 03:10 33.43122 -111.99354 1137 ft 9 kts 202°
2026-05-04 03:10 33.43104 -111.99419 1134 ft 6 kts 271°
2026-05-04 03:10 33.43104 -111.99424 1134 ft 5 kts 270°
2026-05-04 03:10 33.43104 -111.99752 1134 ft 75 kts 270°
2026-05-04 03:11 33.43105 -112.00653 1132 ft 136 kts 270°
2026-05-04 03:11 33.43121 -112.01959 1181 ft 176 kts 268°
2026-05-04 03:11 33.43123 -112.03396 1981 ft 162 kts 265°
2026-05-04 03:11 33.43123 -112.04771 2615 ft 169 kts 266°
2026-05-04 03:12 33.43164 -112.06183 3149 ft 183 kts 268°
2026-05-04 03:12 33.43205 -112.07800 3441 ft 201 kts 267°
2026-05-04 03:12 33.43233 -112.09574 3623 ft 228 kts 269°
2026-05-04 03:12 33.43285 -112.11526 4176 ft 236 kts 268°
2026-05-04 03:13 33.43342 -112.13490 5024 ft 238 kts 268°
2026-05-04 03:13 33.43404 -112.15494 5755 ft 245 kts 268°
2026-05-04 03:13 33.43782 -112.17499 6531 ft 254 kts 292°
2026-05-04 03:13 33.44963 -112.19143 7171 ft 273 kts 324°
2026-05-04 03:14 33.46769 -112.19869 7914 ft 280 kts 354°
2026-05-04 03:14 33.48754 -112.19676 8462 ft 292 kts
2026-05-04 03:14 33.50756 -112.19551 9294 ft 290 kts 359°
2026-05-04 03:14 33.52757 -112.19512 10179 ft 285 kts 359°
2026-05-04 03:15 33.54765 -112.19347 10660 ft 300 kts 11°
2026-05-04 03:15 33.56839 -112.18594 10934 ft 320 kts 18°
2026-05-04 03:15 33.59012 -112.17804 11415 ft 332 kts 13°
2026-05-04 03:15 33.61294 -112.17001 11690 ft 355 kts 24°
2026-05-04 03:16 33.63415 -112.15335 11891 ft 373 kts 44°
2026-05-04 03:16 33.65180 -112.12983 12211 ft 387 kts 52°
2026-05-04 03:16 33.66934 -112.10430 12395 ft 404 kts 51°
2026-05-04 03:16 33.68803 -112.07874 12969 ft 409 kts 49°
2026-05-04 03:17 33.70755 -112.05339 13379 ft 418 kts 47°
2026-05-04 03:17 33.72770 -112.02791 13903 ft 422 kts 46°
2026-05-04 03:17 33.75062 -112.00591 14422 ft 424 kts 27°
2026-05-04 03:17 33.77816 -111.99353 14981 ft 423 kts
2026-05-04 03:18 33.80725 -111.98790 15523 ft 425 kts
2026-05-04 03:18 33.83666 -111.98286 16051 ft 429 kts
2026-05-04 03:18 33.86636 -111.97776 16575 ft 432 kts
2026-05-04 03:18 33.89621 -111.97248 17104 ft 435 kts
2026-05-04 03:19 33.92591 -111.96699 17617 ft 438 kts
2026-05-04 03:19 33.95615 -111.96131 18127 ft 441 kts
2026-05-04 03:19 33.98655 -111.95549 18592 ft 444 kts
2026-05-04 03:19 34.01718 -111.94963 19039 ft 446 kts
2026-05-04 03:20 34.04793 -111.94378 19488 ft 448 kts
2026-05-04 03:20 34.07874 -111.93794 19959 ft 450 kts
2026-05-04 03:20 34.09971 -111.93508 20246 ft 446 kts 355°
2026-05-04 03:20 34.13005 -111.93703 20739 ft 439 kts 347°
2026-05-04 03:21 34.16043 -111.94130 21179 ft 441 kts 346°
2026-05-04 03:21 34.19085 -111.94561 21682 ft 442 kts 347°
2026-05-04 03:21 34.22162 -111.94967 22055 ft 447 kts 347°
2026-05-04 03:21 34.25274 -111.95344 22431 ft 450 kts 347°
2026-05-04 03:22 34.28398 -111.95698 22861 ft 451 kts 347°
2026-05-04 03:22 34.31528 -111.96042 23304 ft 452 kts 347°
2026-05-04 03:22 34.34666 -111.96383 23656 ft 454 kts 347°
2026-05-04 03:22 34.37824 -111.96729 23975 ft 456 kts 347°
2026-05-04 03:23 34.40990 -111.97079 24304 ft 457 kts 347°
2026-05-04 03:23 34.44162 -111.97430 24654 ft 459 kts 347°
2026-05-04 03:23 34.47351 -111.97784 25002 ft 461 kts 347°
2026-05-04 03:23 34.50551 -111.98138 25294 ft 463 kts 346°
2026-05-04 03:24 34.53774 -111.98495 25634 ft 465 kts 346°
2026-05-04 03:24 34.56958 -111.98848 25969 ft 466 kts 346°
2026-05-04 03:24 34.60191 -111.99207 26306 ft 467 kts 346°
2026-05-04 03:24 34.63428 -111.99563 26641 ft 468 kts 346°
2026-05-04 03:25 34.66685 -111.99923 26916 ft 470 kts 346°
2026-05-04 03:25 34.69947 -112.00285 27222 ft 472 kts 346°
2026-05-04 03:25 34.73223 -112.00648 27513 ft 474 kts 346°
2026-05-04 03:25 34.76520 -112.01015 27818 ft 475 kts 346°
2026-05-04 03:26 34.79818 -112.01383 28139 ft 476 kts 346°
2026-05-04 03:26 34.83121 -112.01754 28530 ft 476 kts 346°
2026-05-04 03:26 34.86412 -112.02122 29022 ft 473 kts 346°
2026-05-04 03:26 34.89675 -112.02488 29570 ft 469 kts 346°
2026-05-04 03:27 34.92914 -112.02849 30060 ft 468 kts 346°
2026-05-04 03:27 34.96154 -112.03209 30509 ft 465 kts 345°
2026-05-04 03:27 34.99326 -112.03567 31016 ft 460 kts 345°
2026-05-04 03:27 35.02506 -112.03929 31420 ft 458 kts 344°
2026-05-04 03:28 35.05678 -112.04292 31745 ft 457 kts 344°
2026-05-04 03:28 35.08844 -112.04654 32133 ft 456 kts 343°
2026-05-04 03:28 35.12010 -112.05013 32535 ft 454 kts 343°
2026-05-04 03:28 35.15112 -112.05364 32928 ft 452 kts 343°
2026-05-04 03:29 35.18241 -112.05718 33372 ft 452 kts 343°
2026-05-04 03:29 35.21378 -112.06077 33561 ft 455 kts 343°
2026-05-04 03:29 35.24533 -112.06439 33872 ft 454 kts 343°
2026-05-04 03:29 35.27669 -112.06793 34280 ft 451 kts 342°
2026-05-04 03:30 35.30787 -112.07145 34629 ft 448 kts 342°
2026-05-04 03:30 35.33885 -112.07499 34869 ft 448 kts 342°
2026-05-04 03:30 35.36999 -112.07854 35075 ft 449 kts 342°
2026-05-04 03:30 35.40113 -112.08178 35349 ft 449 kts 343°
2026-05-04 03:31 35.43240 -112.08483 35467 ft 452 kts 343°
2026-05-04 03:31 35.46391 -112.08787 35620 ft 454 kts 343°
2026-05-04 03:31 35.49531 -112.09092 35884 ft 451 kts 342°
2026-05-04 03:31 35.52628 -112.09398 36000 ft 453 kts 342°
2026-05-04 03:32 35.55766 -112.09734 35980 ft 451 kts 342°
2026-05-04 03:32 35.61996 -112.10482 36038 ft 447 kts 341°
2026-05-04 03:33 35.68187 -112.11245 36107 ft 447 kts 342°
2026-05-04 03:33 35.74384 -112.11997 36161 ft 448 kts 342°
2026-05-04 03:34 35.80600 -112.12746 36187 ft 449 kts 342°
2026-05-04 03:34 35.86862 -112.13461 36091 ft 452 kts 342°
2026-05-04 03:35 35.93099 -112.14251 36077 ft 455 kts 342°
2026-05-04 03:35 35.96228 -112.14852 36054 ft 440 kts 330°
2026-05-04 03:35 35.98921 -112.16368 36115 ft 419 kts 320°
2026-05-04 03:36 36.04012 -112.19864 36070 ft 423 kts 320°
2026-05-04 03:36 36.09204 -112.23389 36020 ft 428 kts 320°
2026-05-04 03:37 36.14396 -112.26976 35996 ft 429 kts 321°
2026-05-04 03:37 36.19678 -112.30478 35959 ft 432 kts 321°
2026-05-04 03:38 36.24981 -112.33998 35931 ft 432 kts 321°
2026-05-04 03:38 36.30263 -112.37538 35881 ft 429 kts 321°
2026-05-04 03:39 36.35442 -112.41015 35894 ft 418 kts 320°
2026-05-04 03:39 36.40543 -112.44455 35896 ft 415 kts 320°
2026-05-04 03:40 36.45590 -112.47874 35888 ft 416 kts 320°
2026-05-04 03:40 36.50681 -112.51322 35891 ft 417 kts 320°
2026-05-04 03:41 36.55802 -112.54795 35880 ft 420 kts 320°
2026-05-04 03:41 36.60949 -112.58286 35887 ft 422 kts 320°
2026-05-04 03:42 36.66120 -112.61802 35872 ft 424 kts 320°
2026-05-04 03:42 36.71326 -112.65351 35875 ft 427 kts 321°
2026-05-04 03:43 36.76522 -112.68886 35898 ft 428 kts 321°
2026-05-04 03:43 36.81754 -112.72458 35913 ft 429 kts 321°
2026-05-04 03:44 36.86983 -112.76033 35953 ft 429 kts 321°
2026-05-04 03:44 36.92239 -112.79627 35978 ft 430 kts 321°
2026-05-04 03:45 36.97478 -112.83227 35982 ft 429 kts 321°
2026-05-04 03:45 37.02716 -112.86826 35972 ft 428 kts 321°
2026-05-04 03:46 37.07935 -112.90415 35994 ft 427 kts 320°
2026-05-04 03:46 37.13101 -112.93976 35975 ft 426 kts 320°
2026-05-04 03:47 37.18285 -112.97573 35933 ft 424 kts 320°
2026-05-04 03:47 37.23453 -113.01151 35909 ft 424 kts 320°
2026-05-04 03:48 37.28628 -113.04724 35882 ft 425 kts 320°
2026-05-04 03:48 37.33769 -113.08365 35884 ft 425 kts 320°
2026-05-04 03:49 37.38966 -113.11948 35895 ft 427 kts 320°
2026-05-04 03:49 37.44185 -113.15538 35947 ft 427 kts 320°
2026-05-04 03:50 37.49406 -113.19159 35949 ft 430 kts 320°
2026-05-04 03:50 37.54649 -113.22821 35964 ft 430 kts 320°
2026-05-04 03:51 37.59836 -113.26451 35971 ft 429 kts 320°
2026-05-04 03:51 37.65060 -113.30112 36001 ft 428 kts 319°
2026-05-04 03:52 37.70265 -113.33758 35964 ft 428 kts 319°
2026-05-04 03:52 37.75465 -113.37416 35938 ft 427 kts 319°
2026-05-04 03:53 37.80655 -113.41071 35918 ft 426 kts 319°
2026-05-04 03:53 37.85828 -113.44720 35895 ft 427 kts 320°
2026-05-04 03:54 37.91027 -113.48391 35872 ft 427 kts 320°
2026-05-04 03:54 37.95822 -113.52575 35881 ft 411 kts 309°
2026-05-04 03:55 38.00129 -113.57280 35878 ft 411 kts 309°
2026-05-04 03:55 38.04472 -113.62033 35886 ft 414 kts 309°
2026-05-04 03:56 38.08855 -113.66804 35872 ft 416 kts 309°
2026-05-04 03:56 38.13262 -113.71588 35878 ft 417 kts 309°
2026-05-04 03:57 38.17682 -113.76389 35881 ft 418 kts 309°
2026-05-04 03:57 38.22114 -113.81212 35870 ft 419 kts 309°
2026-05-04 03:58 38.28726 -113.88421 35859 ft 417 kts 309°
2026-05-04 03:58 38.33134 -113.93249 35863 ft 418 kts 309°
2026-05-04 03:59 38.37551 -113.98084 35881 ft 419 kts 310°
2026-05-04 03:59 38.41986 -114.02939 35868 ft 420 kts 309°
2026-05-04 04:00 38.46424 -114.07811 35871 ft 422 kts 309°
2026-05-04 04:00 38.50878 -114.12711 35858 ft 423 kts 309°
2026-05-04 04:01 38.55337 -114.17624 35872 ft 424 kts 310°
2026-05-04 04:01 38.59780 -114.22530 35857 ft 425 kts 310°
2026-05-04 04:02 38.64262 -114.27486 35851 ft 427 kts 310°
2026-05-04 04:02 38.68764 -114.32473 35844 ft 428 kts 310°
2026-05-04 04:03 38.73276 -114.37482 35844 ft 431 kts 311°
2026-05-04 04:03 38.77813 -114.42525 35843 ft 433 kts 311°
2026-05-04 04:04 38.82371 -114.47599 35838 ft 434 kts 311°
2026-05-04 04:04 38.86913 -114.52664 35833 ft 436 kts 311°
2026-05-04 04:05 38.91490 -114.57779 35832 ft 437 kts 311°
2026-05-04 04:05 38.96083 -114.62920 35840 ft 438 kts 311°
2026-05-04 04:06 39.00688 -114.68085 35865 ft 440 kts 311°
2026-05-04 04:06 39.05313 -114.73282 35892 ft 442 kts 311°
2026-05-04 04:07 39.09959 -114.78512 35939 ft 445 kts 313°
2026-05-04 04:07 39.14630 -114.83777 35956 ft 447 kts 313°
2026-05-04 04:08 39.18521 -114.88171 35984 ft 448 kts 313°
2026-05-04 04:08 39.23208 -114.93475 35997 ft 448 kts 313°
2026-05-04 04:09 39.27909 -114.98801 35987 ft 450 kts 313°
2026-05-04 04:09 39.32588 -115.04113 35959 ft 451 kts 313°
2026-05-04 04:10 39.37332 -115.09511 35929 ft 452 kts 313°
2026-05-04 04:10 39.42020 -115.14853 35825 ft 453 kts 314°
2026-05-04 04:11 39.46742 -115.20246 35828 ft 454 kts 314°
2026-05-04 04:11 39.51481 -115.25669 35824 ft 454 kts 314°
2026-05-04 04:12 39.56219 -115.31101 35827 ft 454 kts 315°
2026-05-04 04:12 39.60952 -115.36536 35820 ft 455 kts 315°
2026-05-04 04:13 39.65686 -115.41982 35815 ft 455 kts 315°
2026-05-04 04:13 39.70424 -115.47445 35817 ft 455 kts 315°
2026-05-04 04:14 39.75125 -115.52875 35817 ft 456 kts 316°
2026-05-04 04:14 39.79862 -115.58357 35825 ft 456 kts 316°
2026-05-04 04:15 39.84613 -115.63865 35811 ft 457 kts 316°
2026-05-04 04:15 39.89363 -115.69385 35825 ft 458 kts 316°
2026-05-04 04:16 39.94122 -115.74924 35816 ft 459 kts 316°
2026-05-04 04:16 39.98894 -115.80489 35817 ft 459 kts 316°
2026-05-04 04:17 40.03656 -115.86055 35813 ft 460 kts 316°
2026-05-04 04:17 40.08400 -115.91608 35815 ft 460 kts 316°
2026-05-04 04:18 40.13167 -115.97201 35821 ft 461 kts 316°
2026-05-04 04:18 40.17937 -116.02807 35819 ft 461 kts 316°
2026-05-04 04:19 40.22711 -116.08431 35806 ft 462 kts 317°
2026-05-04 04:19 40.27488 -116.14067 35813 ft 462 kts 317°
2026-05-04 04:20 40.32240 -116.19686 35809 ft 463 kts 317°
2026-05-04 04:20 40.37020 -116.25349 35807 ft 463 kts 317°
2026-05-04 04:21 40.41804 -116.31029 35803 ft 464 kts 317°
2026-05-04 04:21 40.46596 -116.36729 35809 ft 464 kts 317°
2026-05-04 04:22 40.51390 -116.42443 35805 ft 465 kts 317°
2026-05-04 04:22 40.56178 -116.48162 35833 ft 465 kts 317°
2026-05-04 04:23 40.60939 -116.53859 35847 ft 465 kts 317°
2026-05-04 04:23 40.65729 -116.59603 35869 ft 466 kts 317°
2026-05-04 04:24 40.70530 -116.65372 35874 ft 467 kts 317°
2026-05-04 04:24 40.75333 -116.71155 35879 ft 467 kts 317°
2026-05-04 04:25 40.80131 -116.76944 35792 ft 468 kts 317°
2026-05-04 04:25 40.84933 -116.82750 35798 ft 468 kts 317°
2026-05-04 04:26 40.89725 -116.88556 35803 ft 467 kts 317°
2026-05-04 04:26 40.94510 -116.94365 35799 ft 467 kts 317°
2026-05-04 04:27 40.99254 -117.00136 35795 ft 465 kts 318°
2026-05-04 04:27 41.04011 -117.05935 35791 ft 463 kts 318°
2026-05-04 04:28 41.08735 -117.11705 35794 ft 461 kts 317°
2026-05-04 04:28 41.13440 -117.17467 35801 ft 459 kts 319°
2026-05-04 04:29 41.18137 -117.23225 35802 ft 458 kts 318°
2026-05-04 04:29 41.22789 -117.28941 35801 ft 458 kts 318°
2026-05-04 04:30 41.27458 -117.34689 35805 ft 457 kts 318°
2026-05-04 04:30 41.32121 -117.40444 35801 ft 457 kts 318°
2026-05-04 04:31 41.36773 -117.46198 35809 ft 456 kts 318°
2026-05-04 04:31 41.41439 -117.51980 35819 ft 461 kts 318°
2026-05-04 04:32 41.46168 -117.57850 35812 ft 466 kts 318°
2026-05-04 04:32 41.50913 -117.63755 35806 ft 467 kts 318°
2026-05-04 04:33 41.55661 -117.69677 35812 ft 466 kts 318°
2026-05-04 04:33 41.60404 -117.75602 35815 ft 466 kts 317°
2026-05-04 04:34 41.65103 -117.81484 35809 ft 466 kts 317°
2026-05-04 04:34 41.69822 -117.87408 35811 ft 465 kts 318°
2026-05-04 04:35 41.74535 -117.93336 35817 ft 464 kts 318°
2026-05-04 04:35 41.79237 -117.99261 35821 ft 464 kts 318°
2026-05-04 04:36 41.84473 -118.04177 35797 ft 459 kts 337°
2026-05-04 04:36 41.90343 -118.07514 35832 ft 457 kts 339°
2026-05-04 04:37 42.02085 -118.14038 35843 ft 456 kts 339°
2026-05-04 04:38 42.07936 -118.17358 35837 ft 456 kts 338°
2026-05-04 04:38 42.13777 -118.20692 35854 ft 456 kts 339°
2026-05-04 04:39 42.19616 -118.24042 35852 ft 456 kts 338°
2026-05-04 04:39 42.25418 -118.27382 35853 ft 456 kts 338°
2026-05-04 04:40 42.31258 -118.30743 35857 ft 456 kts 338°
2026-05-04 04:40 42.37095 -118.34104 35861 ft 456 kts 338°
2026-05-04 04:41 42.42924 -118.37471 35858 ft 455 kts 338°
2026-05-04 04:41 42.48715 -118.40830 35859 ft 455 kts 338°
2026-05-04 04:42 42.54534 -118.44205 35868 ft 454 kts 338°
2026-05-04 04:42 42.60344 -118.47583 35875 ft 453 kts 338°
2026-05-04 04:43 42.66145 -118.50958 35873 ft 453 kts 338°
2026-05-04 04:43 42.71933 -118.54337 35880 ft 453 kts 338°
2026-05-04 04:44 42.77717 -118.57724 35882 ft 452 kts 338°
2026-05-04 04:44 42.83499 -118.61120 35879 ft 452 kts 338°
2026-05-04 04:45 42.89287 -118.64506 35879 ft 453 kts 338°
2026-05-04 04:47 43.09582 -118.76296 35870 ft 453 kts 339°
2026-05-04 04:47 43.15452 -118.79481 35871 ft 453 kts 339°
2026-05-04 04:48 43.21274 -118.82658 35860 ft 453 kts 340°
2026-05-04 04:49 43.35912 -118.90749 35899 ft 454 kts 340°
2026-05-04 04:49 43.41766 -118.94004 35915 ft 454 kts 340°
2026-05-04 04:50 43.47622 -118.97263 35936 ft 454 kts 340°
2026-05-04 04:50 43.53479 -119.00530 35945 ft 454 kts 340°
2026-05-04 04:51 43.59342 -119.03809 35944 ft 454 kts 341°
2026-05-04 04:51 43.65195 -119.07087 35877 ft 454 kts 341°
2026-05-04 04:52 43.71048 -119.10373 35884 ft 454 kts 341°
2026-05-04 04:52 43.76901 -119.13665 35895 ft 454 kts 341°
2026-05-04 04:53 43.82715 -119.16944 35892 ft 454 kts 341°
2026-05-04 04:53 43.88561 -119.20246 35898 ft 454 kts 341°
2026-05-04 04:54 43.94400 -119.23552 35906 ft 453 kts 340°
2026-05-04 04:54 44.00229 -119.26861 35907 ft 452 kts 340°
2026-05-04 04:55 44.06054 -119.30172 35911 ft 451 kts 340°
2026-05-04 04:55 44.10879 -119.32920 35903 ft 451 kts 340°
2026-05-04 04:56 44.16678 -119.36230 35914 ft 450 kts 340°
2026-05-04 04:56 44.23420 -119.40087 35905 ft 450 kts 340°
2026-05-04 04:57 44.28270 -119.42867 35888 ft 449 kts 340°
2026-05-04 04:57 44.34007 -119.46160 35904 ft 448 kts 340°
2026-05-04 04:58 44.39778 -119.49479 35910 ft 448 kts 340°
2026-05-04 04:58 44.45515 -119.52885 35903 ft 448 kts 340°
2026-05-04 04:59 44.51290 -119.56203 35889 ft 447 kts 341°
2026-05-04 04:59 44.57058 -119.59501 35914 ft 447 kts 340°
2026-05-04 05:00 44.62815 -119.62819 35899 ft 447 kts 340°
2026-05-04 05:01 44.71441 -119.67834 35910 ft 447 kts 340°
2026-05-04 05:01 44.77152 -119.71169 35905 ft 448 kts 340°
2026-05-04 05:02 44.82944 -119.74558 35897 ft 448 kts 340°
2026-05-04 05:02 44.88698 -119.77933 35903 ft 448 kts 340°
2026-05-04 05:03 44.94413 -119.81289 35902 ft 448 kts 340°
2026-05-04 05:04 45.05923 -119.88077 35893 ft 448 kts 340°
2026-05-04 05:04 45.11672 -119.91476 35893 ft 448 kts 340°
2026-05-04 05:06 45.34648 -120.05141 35859 ft 447 kts 340°
2026-05-04 05:07 45.40380 -120.08568 35837 ft 447 kts 340°
2026-05-04 05:07 45.46074 -120.11980 35840 ft 446 kts 340°
2026-05-04 05:09 45.71735 -120.27454 35822 ft 443 kts 340°
2026-05-04 05:10 45.77403 -120.30892 35822 ft 442 kts 340°
2026-05-04 05:10 45.83051 -120.34336 35812 ft 441 kts 341°
2026-05-04 05:11 45.88692 -120.37768 35821 ft 439 kts 341°
2026-05-04 05:11 45.94311 -120.41196 35832 ft 438 kts 341°
2026-05-04 05:12 45.99916 -120.44625 35838 ft 437 kts 341°
2026-05-04 05:12 46.05464 -120.48028 35840 ft 436 kts 341°
2026-05-04 05:13 46.11040 -120.51463 35845 ft 436 kts 340°
2026-05-04 05:13 46.16609 -120.54887 35845 ft 435 kts 341°
2026-05-04 05:14 46.22160 -120.58312 35841 ft 433 kts 341°
2026-05-04 05:14 46.27711 -120.61747 35398 ft 440 kts 341°
2026-05-04 05:15 46.30541 -120.63498 34702 ft 440 kts 341°
2026-05-04 05:15 46.33355 -120.65245 33906 ft 442 kts 340°
2026-05-04 05:15 46.36191 -120.67016 32988 ft 444 kts 340°
2026-05-04 05:15 46.39032 -120.68784 32077 ft 445 kts 340°
2026-05-04 05:16 46.41883 -120.70556 31191 ft 447 kts 340°
2026-05-04 05:16 46.44741 -120.72335 30285 ft 449 kts 339°
2026-05-04 05:16 46.47624 -120.74132 29233 ft 451 kts 339°
2026-05-04 05:16 46.50515 -120.75938 28148 ft 453 kts 339°
2026-05-04 05:17 46.53414 -120.77752 27377 ft 450 kts 339°
2026-05-04 05:17 46.56270 -120.79543 26638 ft 445 kts 339°
2026-05-04 05:17 46.59099 -120.81319 25951 ft 440 kts 339°
2026-05-04 05:17 46.61896 -120.83076 25256 ft 436 kts 339°
2026-05-04 05:18 46.64638 -120.84799 24612 ft 432 kts 339°
2026-05-04 05:18 46.67386 -120.86526 23926 ft 429 kts 339°
2026-05-04 05:18 46.70125 -120.88250 23190 ft 427 kts 338°
2026-05-04 05:18 46.72835 -120.89960 22447 ft 424 kts 338°
2026-05-04 05:19 46.75526 -120.91659 21746 ft 419 kts 338°
2026-05-04 05:19 46.78188 -120.93341 21076 ft 415 kts 338°
2026-05-04 05:19 46.80729 -120.95322 20391 ft 415 kts 323°
2026-05-04 05:19 46.82738 -120.98319 19782 ft 413 kts 309°
2026-05-04 05:20 46.84414 -121.01712 19140 ft 411 kts 306°
2026-05-04 05:20 46.86003 -121.05172 18472 ft 409 kts 305°
2026-05-04 05:20 46.87562 -121.08627 17773 ft 407 kts 305°
2026-05-04 05:20 46.89124 -121.12076 17103 ft 403 kts 304°
2026-05-04 05:21 46.90671 -121.15454 16501 ft 397 kts 305°
2026-05-04 05:21 46.92215 -121.18797 15866 ft 394 kts 306°
2026-05-04 05:21 46.93744 -121.22088 15248 ft 390 kts 306°
2026-05-04 05:21 46.95266 -121.25362 14643 ft 387 kts 305°
2026-05-04 05:22 46.96778 -121.28600 14034 ft 384 kts 305°
2026-05-04 05:22 46.98281 -121.31819 13374 ft 382 kts 306°
2026-05-04 05:22 46.99764 -121.35012 12832 ft 376 kts 306°
2026-05-04 05:22 47.01209 -121.38129 12594 ft 366 kts 305°
2026-05-04 05:23 47.02616 -121.41170 12366 ft 366 kts 305°
2026-05-04 05:23 47.04066 -121.44299 12138 ft 374 kts 305°
2026-05-04 05:23 47.05524 -121.47452 12050 ft 367 kts 305°
2026-05-04 05:23 47.06901 -121.50434 12014 ft 338 kts 305°
2026-05-04 05:24 47.08166 -121.53178 12002 ft 313 kts 305°
2026-05-04 05:24 47.09347 -121.55739 12014 ft 294 kts 305°
2026-05-04 05:24 47.10464 -121.58167 12007 ft 280 kts 305°
2026-05-04 05:24 47.11527 -121.60481 11997 ft 267 kts 304°
2026-05-04 05:25 47.12535 -121.62679 12007 ft 254 kts 305°
2026-05-04 05:25 47.13519 -121.64814 12023 ft 256 kts 305°
2026-05-04 05:25 47.14573 -121.67103 12054 ft 282 kts 304°
2026-05-04 05:25 47.15669 -121.69489 12029 ft 287 kts 305°
2026-05-04 05:26 47.16775 -121.71906 12021 ft 284 kts 305°
2026-05-04 05:26 47.17875 -121.74307 12010 ft 281 kts 304°
2026-05-04 05:26 47.18960 -121.76680 12011 ft 279 kts 304°
2026-05-04 05:26 47.20044 -121.79054 12014 ft 281 kts 304°
2026-05-04 05:27 47.21150 -121.81474 12026 ft 289 kts 305°
2026-05-04 05:28 47.28535 -121.98796 11760 ft 284 kts 278°
2026-05-04 05:29 47.28420 -122.01688 11402 ft 286 kts 258°
2026-05-04 05:29 47.27931 -122.04533 11030 ft 286 kts 256°
2026-05-04 05:29 47.27404 -122.07334 10604 ft 283 kts 255°
2026-05-04 05:29 47.26876 -122.10123 10119 ft 282 kts 255°
2026-05-04 05:31 47.23203 -122.29122 6780 ft 272 kts 255°
2026-05-04 05:31 47.22652 -122.31813 6327 ft 271 kts 255°
2026-05-04 05:32 47.22166 -122.34472 5855 ft 267 kts 266°
2026-05-04 05:32 47.22381 -122.37124 5379 ft 260 kts 295°
2026-05-04 05:32 47.23409 -122.39191 4996 ft 250 kts 324°
2026-05-04 05:33 47.26545 -122.39850 4476 ft 229 kts 21°
2026-05-04 05:33 47.27936 -122.38754 4067 ft 229 kts 36°
2026-05-04 05:33 47.29124 -122.37204 3742 ft 226 kts 48°
2026-05-04 05:33 47.29998 -122.35271 3221 ft 226 kts 54°
2026-05-04 05:34 47.31053 -122.33664 2909 ft 214 kts 34°
2026-05-04 05:34 47.32304 -122.32570 2555 ft 207 kts 23°
2026-05-04 05:34 47.33609 -122.32034 2466 ft 186 kts
2026-05-04 05:34 47.34862 -122.31938 2207 ft 176 kts
2026-05-04 05:35 47.36053 -122.31897 1945 ft 166 kts
2026-05-04 05:35 47.37154 -122.31878 1793 ft 155 kts
2026-05-04 05:35 47.38229 -122.31870 1561 ft 155 kts
2026-05-04 05:35 47.39294 -122.31854 1346 ft 151 kts
2026-05-04 05:36 47.40356 -122.31841 1140 ft 154 kts
2026-05-04 05:36 47.41432 -122.31827 922 ft 155 kts
2026-05-04 05:36 47.42502 -122.31824 706 ft 152 kts
2026-05-04 05:36 47.43553 -122.31816 491 ft 151 kts
2026-05-04 05:37 47.44590 -122.31805 382 ft 142 kts
2026-05-04 05:37 47.45381 -122.31795 394 ft 83 kts 360°
2026-05-04 05:37 47.45735 -122.31776 411 ft 20 kts 12°
2026-05-04 05:38 47.45857 -122.31721 410 ft 15 kts 24°
2026-05-04 05:38 47.45955 -122.31622 407 ft 18 kts 47°
2026-05-04 05:38 47.46008 -122.31464 411 ft 17 kts 77°
2026-05-04 05:38 47.46012 -122.31293 428 ft 16 kts 91°
2026-05-04 05:39 47.46012 -122.31127 432 ft 16 kts 90°
2026-05-04 05:39 47.46011 -122.30930 434 ft 0 kts 90°
2026-05-04 05:41 47.46011 -122.30915 426 ft 6 kts 89°
2026-05-04 05:41 47.46011 -122.30802 435 ft 15 kts 91°
2026-05-04 05:41 47.46005 -122.30666 425 ft 5 kts 116°
2026-05-04 05:41 47.45990 -122.30638 428 ft 2 kts 138°
2026-05-04 05:42 47.45981 -122.30630 433 ft 2 kts 153°
2026-05-04 05:42 47.45924 -122.30620 428 ft 13 kts 176°
2026-05-04 05:42 47.45850 -122.30620 435 ft 18 kts 180°
2026-05-04 05:42 47.45726 -122.30621 434 ft 18 kts 180°
2026-05-04 05:43 47.45604 -122.30622 430 ft 18 kts 180°
2026-05-04 05:43 47.45476 -122.30622 421 ft 19 kts 181°
2026-05-04 05:43 47.45345 -122.30625 418 ft 20 kts 181°
2026-05-04 05:45 47.44986 -122.30332 408 ft 3 kts 187°
2026-05-04 05:45 47.44977 -122.30334 406 ft 0 kts 187°